Regional Weather Roundup
Issued by NWS

Home | Current Version | Previous Version | Graphics & Text | Print | Product List | Glossary On
Versions: 1 2 3 4 5 6 7 8 9 10 11 12 13 14 15 16 17 18 19 20 21 22 23 24 25 26 27 28 29 30 31 32 33 34 35 36 37 38 39 40 41 42 43 44 45 46 47 48 49 50
000
ASUS43 KLSX 181359
RWRMO

WEATHER SUMMARY FOR MISSOURI
NATIONAL WEATHER SERVICE SPRINGFIELD MO
900 AM CDT FRI APR 18 2014

NOTE: "FAIR" INDICATES FEW OR NO CLOUDS BELOW 12,000 FEET WITH NO
       SIGNIFICANT WEATHER AND/OR OBSTRUCTIONS TO VISIBILITY.
       CURRENT SKY AND/OR WEATHER CONDITIONS ARE NOT AVAILABLE FOR
       CHILLICOTHE AND FARMINGTON.

MOZ001>031-035>038-043-044-053-054-181500-
...NORTHERN AND WESTERN MISSOURI...

CITY           SKY/WX    TMP DP  RH WIND       PRES   REMARKS
KANSAS CTY INT MOSUNNY   47  36  65 CALM      30.32S HAZE
KANSAS C DTWN  SUNNY     46  37  71 CALM      30.33R HAZE
LEE`S SUMMIT   SUNNY     45  37  73 E5        30.32S
ST JOSEPH      SUNNY     42  36  79 CALM      30.33F HAZE
KIRKSVILLE     SUNNY     46  36  68 E5        30.35R

$$
MOZ066>068-077>081-088>096-101>105-181500-
...SOUTHWEST MISSOURI...

CITY           SKY/WX    TMP DP  RH WIND       PRES   REMARKS
SPRINGFIELD    SUNNY     54  42  64 CALM      30.28R
JOPLIN         SUNNY     49  41  74 NE6       30.29S

$$
MOZ032>034-039>042-045>050-055>058-069>072-181500-
...CENTRAL MISSOURI...

CITY           SKY/WX    TMP DP  RH WIND       PRES   REMARKS
COLUMBIA       SUNNY     50  41  71 E6        30.32R
JEFFERSON CITY SUNNY     48  41  76 CALM      30.33R
ROLLA          SUNNY     51  40  65 E7        30.30R
SEDALIA        SUNNY     47  41  80 NE5       30.33R
OSAGE BEACH    SUNNY     48  39  71 NE6       30.33R

$$
MOZ051-052-059>065-181500-
...EAST CENTRAL MISSOURI...

CITY           SKY/WX    TMP DP  RH WIND       PRES   REMARKS
ST LOUIS INTL  SUNNY     54  38  54 NE3       30.32R
SPIRIT OF STL  SUNNY     51  40  65 CALM      30.32R
ST CHARLES     SUNNY     53  40  61 NE8       30.32R

$$
MOZ072>076-082>087-097>100-106>115-181500-
...SOUTH CENTRAL AND SOUTHEAST MISSOURI...

CITY           SKY/WX    TMP DP  RH WIND       PRES   REMARKS
CAPE GIRARDEAU MOSUNNY   57  47  69 NE5       30.28S
FARMINGTON     SUNNY     54  43  66 N3        30.32R
POPLAR BLUFF   SUNNY     62  43  49 N5        30.26R
WEST PLAINS    SUNNY     56  42  59 NE5       30.28S

$$



USA.gov is the U.S. government's official web portal to all federal, state and local government web resources and services.